TimeAKST,TemperatureF,Dew PointF,Humidity,Sea Level PressureIn,VisibilityMPH,Wind Direction,Wind SpeedMPH,Gust SpeedMPH,PrecipitationIn,Events,Conditions,WindDirDegrees,DateUTC
12:53 AM,41.0,36.0,82,29.49,10.0,WNW,17.3,23.0,0.00,Rain,Light Rain,300,2012-11-11 09:53:00
1:53 AM,39.9,37.0,89,29.50,10.0,NW,13.8,20.7,0.00,Rain,Light Rain,310,2012-11-11 10:53:00
2:51 AM,39.2,37.4,93,29.51,9.0,WNW,15.0,23.0,0.00,,Overcast,290,2012-11-11 11:51:00
2:53 AM,39.9,37.0,89,29.51,9.0,WNW,16.1,23.0,0.00,,Overcast,290,2012-11-11 11:53:00
3:53 AM,41.0,37.0,86,29.52,10.0,WNW,12.7,23.0,0.00,,Mostly Cloudy,300,2012-11-11 12:53:00
4:53 AM,41.0,37.0,86,29.53,10.0,WNW,12.7,-,0.00,,Overcast,300,2012-11-11 13:53:00
5:53 AM,41.0,36.0,82,29.55,10.0,WNW,13.8,-,N/A,,Overcast,290,2012-11-11 14:53:00
6:02 AM,41.0,35.6,81,29.54,10.0,WNW,16.1,-,N/A,,Overcast,300,2012-11-11 15:02:00
6:53 AM,41.0,36.0,82,29.55,10.0,WNW,15.0,20.7,N/A,,Mostly Cloudy,300,2012-11-11 15:53:00
7:53 AM,41.0,35.1,79,29.56,10.0,NW,12.7,-,N/A,,Mostly Cloudy,310,2012-11-11 16:53:00
8:53 AM,39.9,34.0,79,29.58,10.0,WNW,11.5,-,N/A,,Partly Cloudy,300,2012-11-11 17:53:00
9:53 AM,41.0,34.0,76,29.60,10.0,NW,10.4,-,N/A,,Scattered Clouds,310,2012-11-11 18:53:00
10:53 AM,42.1,33.1,70,29.62,10.0,WNW,8.1,-,N/A,,Scattered Clouds,300,2012-11-11 19:53:00
11:53 AM,44.1,34.0,68,29.64,10.0,WNW,12.7,-,N/A,,Scattered Clouds,290,2012-11-11 20:53:00
12:53 PM,45.0,36.0,71,29.64,10.0,WNW,13.8,-,N/A,,Partly Cloudy,290,2012-11-11 21:53:00
1:53 PM,45.0,35.1,68,29.65,10.0,WNW,16.1,21.9,N/A,,Partly Cloudy,300,2012-11-11 22:53:00
2:53 PM,46.0,35.1,66,29.66,10.0,WNW,13.8,20.7,N/A,,Partly Cloudy,290,2012-11-11 23:53:00
3:53 PM,44.1,34.0,68,29.68,10.0,WNW,11.5,-,N/A,,Partly Cloudy,300,2012-11-12 00:53:00
4:53 PM,42.1,34.0,73,29.70,10.0,WNW,10.4,-,N/A,,Scattered Clouds,300,2012-11-12 01:53:00
5:53 PM,42.1,32.0,67,29.72,10.0,WNW,12.7,-,N/A,,Scattered Clouds,300,2012-11-12 02:53:00
6:53 PM,42.1,32.0,67,29.73,10.0,NW,9.2,-,N/A,,Scattered Clouds,320,2012-11-12 03:53:00
7:53 PM,42.1,30.9,65,29.75,10.0,NW,10.4,-,N/A,,Scattered Clouds,310,2012-11-12 04:53:00
8:53 PM,39.0,30.9,73,29.76,10.0,West,9.2,-,N/A,,Scattered Clouds,270,2012-11-12 05:53:00
9:53 PM,37.0,30.0,76,29.78,10.0,West,6.9,-,N/A,,Scattered Clouds,280,2012-11-12 06:53:00
10:53 PM,34.0,30.0,85,29.81,10.0,West,5.8,-,N/A,,Scattered Clouds,270,2012-11-12 07:53:00
11:53 PM,33.1,30.0,89,29.82,10.0,WNW,3.5,-,N/A,,Scattered Clouds,300,2012-11-12 08:53:00